This is the latest recevied weather packets stored in our database for station/object KF0ZH. If no packets are shown the sender has not sent any weather packets the latest 10 day(s).
| Time | Temp. | Humidity | Pressure | Rain* | Wind** | Luminosity | Snow |
|---|---|---|---|---|---|---|---|
| 1777894264 | 13.33° C | 58% | 994.5 hPa | 0.51 mm | 3.58 m/s, 239° | - | - |
| 1777893964 | 13.33° C | 58% | 994.4 hPa | 0.51 mm | 2.68 m/s, 212° | - | - |
| 1777893664 | 13.33° C | 58% | 994.4 hPa | 0.51 mm | 0 m/s | - | - |
| 1777893364 | 13.89° C | 57% | 994.6 hPa | 0.51 mm | 0 m/s | - | - |
| 1777893063 | 13.33° C | 57% | 994.5 hPa | 0.51 mm | 4.02 m/s, 257° | - | - |
| 1777892464 | 13.89° C | 56% | 994.2 hPa | 0.51 mm | 4.92 m/s, 220° | - | - |
| 1777892164 | 13.33° C | 56% | 994.3 hPa | 0.51 mm | 3.58 m/s, 195° | - | - |
| 1777891864 | 13.33° C | 58% | 994.3 hPa | 0 mm | 1.79 m/s, 272° | - | - |
| 1777891564 | 13.33° C | 58% | 994.1 hPa | 0 mm | 0 m/s | - | - |
| 1777891264 | 13.33° C | 58% | 994 hPa | 0 mm | 0 m/s | - | - |
| 1777890964 | 13.33° C | 58% | 994 hPa | 0 mm | 0.45 m/s, 170° | - | - |
| 1777890664 | 13.33° C | 57% | 994 hPa | 0 mm | 2.68 m/s, 189° | - | - |
| 1777890366 | 13.33° C | 57% | 994.1 hPa | 0 mm | 1.79 m/s, 203° | - | - |
| 1777890064 | 13.89° C | 56% | 994.2 hPa | 0 mm | 2.68 m/s, 185° | - | - |
| 1777889466 | 13.89° C | 56% | 994.4 hPa | 0 mm | 0 m/s | - | - |
| 1777889163 | 13.89° C | 55% | 994.5 hPa | 0 mm | 1.79 m/s, 215° | - | - |
| 1777888863 | 13.89° C | 56% | 994.7 hPa | 0 mm | 2.68 m/s, 216° | - | - |
| 1777888568 | 13.89° C | 56% | 994.8 hPa | 0 mm | 0 m/s | - | - |
| 1777888264 | 13.89° C | 55% | 994.8 hPa | 0 mm | 2.24 m/s, 174° | - | - |
| 1777887964 | 13.33° C | 56% | 994.9 hPa | 0 mm | 0 m/s | - | - |
| 1777887664 | 13.33° C | 56% | 995 hPa | 0 mm | 2.24 m/s, 232° | - | - |
| 1777887363 | 13.33° C | 57% | 995.1 hPa | 0 mm | 0 m/s | - | - |
| 1777887063 | 13.33° C | 57% | 995.2 hPa | 0 mm | 1.79 m/s, 189° | - | - |
| 1777886765 | 13.33° C | 57% | 995.1 hPa | 0 mm | 0 m/s | - | - |
| 1777886466 | 13.33° C | 57% | 995.2 hPa | 0 mm | 1.79 m/s, 225° | - | - |
* Rain latest hour (hover to see other rain measurements)
** Current wind speed in m/s (hover to see current wind gust speed)